Simultaneous Nadir Overpasses (SNOs) Predictions

Prediction of SNOs between LANDSAT-8 and NPP Satellite Orbit:

Table of predicted SNOs for the next 14.0 days since TLE Epoch: 5/21/2016
Index Date (LANDSAT-8) Time (LANDSAT-8) Lat,Lon (LANDSAT-8) SZA (LANDSAT-8 ) Date (NPP) Time (NPP) Lat,Lon (NPP) SZA (NPP ) Distance(km) Time Diff (sec)
1 05/21/2016 21:35:31 70.33,-147.19 49.84 05/21/2016 21:34:18 70.33,-147.33 49.85 5.13 73
2 05/21/2016 22:25:02 -70.16, 20.20 130.34 05/21/2016 22:24:58 -70.15, 20.27 130.35 3.13 4
3 05/21/2016 23:14:30 70.00,-172.38 49.51 05/21/2016 23:15:42 70.02,-172.22 49.51 6.03 72
4 05/24/2016 13:52:03 70.23, -31.46 49.23 05/24/2016 13:51:11 70.21, -31.39 49.23 3.07 52
5 05/24/2016 14:41:33 -70.12, 136.02 130.88 05/24/2016 14:41:53 -70.14, 136.05 130.86 2.63 20
6 05/24/2016 15:31:16 69.13, -57.69 48.16 05/24/2016 15:32:21 69.16, -55.21 48.13 98.17 65
7 05/27/2016 06:08:33 70.23, 84.42 48.77 05/27/2016 06:08:06 70.21, 84.39 48.76 2.09 27
8 05/27/2016 06:58:03 -70.12,-108.10 131.34 05/27/2016 06:58:48 -70.13,-108.17 131.33 2.95 45
9 05/29/2016 21:35:32 -70.49, 33.05 131.38 05/29/2016 21:34:20 -70.54, 32.33 131.31 27.14 72
10 05/29/2016 22:25:03 70.16,-159.79 48.30 05/29/2016 22:24:59 70.16,-159.76 48.29 1.49 4
11 05/29/2016 23:14:33 -70.06, 7.70 131.81 05/29/2016 23:15:41 -70.07, 7.69 131.80 1.40 68
12 06/01/2016 13:52:06 -70.26, 148.59 131.98 06/01/2016 13:51:10 -70.28, 148.52 131.95 3.10 56
13 06/01/2016 14:41:33 70.15, -43.93
